Location: Lafig�re
(44.4503°N, 4.0357°E)
Time: 02:57:26
(UTC+00:00)

Transit 4A - Pass Details

Date: 21 January 2021
Orbit: 866 x 978 km, 66.8° (Epoch: 02 March)

Event Time Altitude Azimuth Distance (km) Brightness Sun altitude
Rises 03:48:21 0° 329° (NNW) 3,638 - -36.2°
Reaches altitude 10° 03:50:59 10° 334° (NNW) 2,674 - -35.7°
Maximum altitude 03:57:09 60° 54° (NE) 1,055 - -34.7°
Exits shadow 03:58:13 52° 95° (E) 1,136 8.5 -34.5°
Drops below altitude 10° 04:03:04 10° 134° (SE) 2,581 10.6 -33.6°
Sets 04:05:34 0° 138° (SE) 3,502 11.4 -33.2°
